Location: Härggis
(46.9540°N, 8.4897°E)
Time: 21:23:12
(UTC+00:00)

USA 308 - Pass Details

Date: 27 May 2022
Orbit: 549 x 558 km, 54.0° (Epoch: 14 June)

Event Time Altitude Azimuth Distance (km) Brightness Sun altitude
Exits shadow 00:36:50 47° 241° (WSW) 745 3.1 -19.8°
Maximum altitude 00:38:00 87° 327° (NNW) 564 2.8 -19.7°
Drops below altitude 10° 00:42:12 10° 58° (ENE) 1,843 6.2 -19.5°
Sets 00:44:29 0° 59° (ENE) 2,750 7.2 -19.4°
